Theta_e
305 305 305 308 311 313 314 315 317 319 321 323 327 328 332 333 335 334 334 333 331 331 333 331 330 330 338 341 339 334 329 324 321 321 325 325 324 326 327 327 329 327 324
308 308 308 309 310 309 311 314 317 319 320 322 323 326 330 332 333 335 335 337 334 333 334 336 336 341 339 339 336 331 328 326 322 319 321 322 322 323 324 323 328 329 323
309 308 308 308 309 310 312 314 316 317 318 319 323 325 327 328 330 333 337 338 336 337 337 339 343 343 342 338 333 330 327 328 324 322 323 321 321 321 319 320 322 320 322
305 304 303 304 307 310 312 312 314 317 317 317 319 321 323 325 327 330 335 338 342 342 344 345 344 342 341 337 333 329 327 325 323 323 321 319 318 318 317 316 317 319 317
305 305 305 306 309 311 314 315 318 319 320 320 320 320 320 322 324 325 331 337 338 342 344 345 344 339 333 333 334 328 327 323 322 319 317 316 315 316 314 315 315 317 317
306 306 308 308 309 309 310 311 313 315 318 320 320 320 320 324 315 312 318 330 338 341 340 340 342 328 327 319 322 321 327 324 320 318 316 316 314 315 314 316 316 319 316
305 306 308 308 308 307 309 311 310 311 313 316 317 318 318 319 310 308 311 323 330 339 339 337 335 338 329 331 317 316 316 314 319 321 318 318 316 318 317 315 315 314 313
305 306 307 307 307 307 307 308 309 309 310 311 314 316 318 320 309 306 309 321 326 336 337 336 333 328 329 328 325 324 324 323 322 324 322 321 322 320 321 320 318 317 316
305 305 306 307 306 306 305 306 308 308 309 311 314 316 317 321 310 307 310 322 327 334 336 333 330 328 310 308 325 322 320 319 309 308 313 311 309 308 316 321 317 316 313
304 304 306 306 306 305 305 305 307 308 309 312 314 316 315 320 311 306 309 322 327 330 331 329 314 325 304 306 324 322 318 318 318 318 317 314 311 310 308 321 319 315 313
305 305 305 306 305 305 305 307 307 306 310 312 313 314 318 319 321 306 301 320 330 329 329 329 327 305 302 302 311 324 319 317 314 318 318 318 318 319 320 321 320 319 315
305 305 305 305 305 306 306 307 308 308 309 310 311 313 317 320 310 308 300 302 316 329 328 328 322 303 300 302 310 303 300 310 320 318 316 316 318 317 318 320 321 321 322
302 303 304 305 306 306 305 305 306 308 309 310 311 313 315 320 319 304 298 299 305 327 326 313 301 297 298 301 300 298 302 321 320 317 315 317 321 319 318 318 319 320 321
302 303 304 305 306 307 308 307 307 308 308 310 312 313 315 318 318 314 314 311 305 311 305 306 305 307 305 306 307 305 322 323 321 320 318 321 322 319 316 317 317 317 316
303 303 304 305 305 306 306 308 309 310 310 311 313 315 315 317 319 311 314 321 319 313 313 319 318 316 316 316 316 318 320 321 321 320 322 321 320 318 315 317 316 315 313
301 302 304 305 304 305 305 305 296 300 298 296 296 304 315 306 303 302 300 302 302 304 319 318 317 315 315 315 316 316 318 317 321 323 322 321 320 319 320 319 316 314 312
302 303 305 304 304 305 307 307 306 298 295 294 294 295 296 306 299 300 301 301 300 308 319 317 316 315 315 315 315 315 315 320 322 321 319 318 318 319 318 318 318 313 313
304 300 305 304 305 306 308 309 310 310 308 307 299 296 295 298 297 297 299 304 316 313 318 317 316 316 317 317 316 315 316 316 317 318 318 319 320 318 316 315 315 317 315
305 306 306 308 309 308 309 310 312 313 310 307 305 300 298 297 297 298 300 320 317 316 317 317 318 318 317 317 316 319 320 317 317 317 320 320 320 318 316 312 311 300 304
305 300 304 309 309 310 313 314 313 309 307 308 310 305 305 307 315 318 319 319 317 317 318 318 317 317 318 318 318 321 318 317 319 320 319 318 315 315 315 313 314 311 309
308 311 306 315 313 315 315 314 313 312 312 309 312 311 302 320 319 317 316 316 317 317 318 317 317 317 319 320 320 320 319 317 316 319 317 315 316 313 315 317 314 314 313
313 314 316 318 318 317 316 317 316 315 314 313 313 307 297 320 318 316 316 315 314 315 316 316 314 317 318 317 316 317 317 318 320 317 315 318 317 316 314 311 309 308 312
317 318 318 316 315 309 314 315 315 315 314 315 315 315 315 315 315 314 312 312 311 309 310 311 311 311 311 310 313 315 315 319 320 317 316 314 313 310 306 302 303 304 303
318 316 316 315 314 313 313 311 310 304 310 310 310 311 310 309 306 305 304 304 303 302 304 304 306 307 305 304 305 306 308 312 316 316 313 308 303 299 298 297 296 295 295
315 315 314 312 310 310 310 309 308 308 307 306 305 306 305 302 300 300 300 300 299 298 297 298 299 300 302 302 299 296 290 291 302 297 303 299 296 294 294 293 292 290 290
312 312 311 310 308 307 307 306 305 305 304 303 301 301 301 299 297 297 297 296 295 294 294 294 293 294 294 293 292 288 288 289 293 291 297 295 293 293 292 290 289 288 287
Wind_Speed
7 7 7 7 8 7 6 7 7 7 7 7 8 7 8 9 10 10 11 10 9 10 13 10 11 6 5 5 6 6 6 5 5 2 1 2 1 3 1 2 2 1 1
8 7 7 6 7 7 7 9 8 8 7 7 7 6 6 7 6 8 9 10 12 15 15 10 12 5 7 7 8 6 4 5 4 5 2 2 2 1 2 1 2 3 1
8 8 6 5 6 6 7 8 8 8 8 7 6 6 7 7 7 7 10 13 13 16 12 11 13 10 10 6 5 5 4 3 3 3 3 0 2 1 1 1 2 2 2
7 8 7 7 6 5 6 7 7 8 8 7 6 6 7 7 8 10 12 14 13 15 12 13 14 11 11 9 7 6 5 4 3 2 3 2 2 1 1 2 1 1 1
5 5 6 4 4 4 4 5 7 7 9 8 7 7 7 7 8 11 11 11 14 12 13 15 12 11 13 10 6 6 6 4 3 3 3 2 2 2 4 3 2 2 1
3 4 4 4 3 4 4 4 4 6 8 10 8 7 7 7 12 15 12 11 12 12 14 10 9 10 11 13 13 12 12 9 6 4 3 4 4 4 3 3 4 3 2
6 6 6 6 6 6 6 6 6 6 7 11 12 8 8 8 12 15 17 10 11 13 13 10 6 7 9 8 7 10 10 11 8 7 7 6 6 7 6 4 3 3 3
9 9 9 8 9 8 7 9 9 7 8 9 10 10 10 9 12 15 17 12 10 14 11 9 10 9 8 11 9 7 6 6 7 4 7 7 6 7 7 6 6 4 1
14 13 12 12 12 10 11 10 10 11 11 10 8 9 9 10 12 15 15 7 10 12 9 9 11 10 11 13 11 9 6 2 2 3 6 10 10 11 8 5 4 4 1
15 13 11 12 13 13 11 12 13 12 13 10 9 8 9 10 12 16 12 7 8 5 6 7 13 14 18 14 11 10 8 6 5 4 3 5 6 5 9 4 5 4 2
15 14 14 14 13 13 13 11 10 8 11 9 7 7 7 8 9 13 13 7 7 6 7 6 6 12 18 13 11 11 9 8 5 5 4 4 4 4 3 3 4 4 3
14 14 14 14 12 13 16 12 11 9 9 9 7 5 5 6 9 12 13 16 10 9 8 9 8 16 15 12 10 11 14 10 5 5 4 3 3 3 3 3 4 3 3
16 16 16 16 15 14 11 9 8 11 10 8 4 4 4 4 6 9 8 12 14 7 7 9 13 14 13 8 10 13 13 7 6 4 4 3 3 4 4 3 2 2 0
17 14 13 14 12 10 8 6 7 8 7 5 4 4 4 4 4 4 3 4 9 10 13 9 9 10 7 9 6 5 6 7 7 5 4 3 3 4 2 3 2 1 1
15 14 13 11 11 10 7 8 8 7 7 5 4 4 4 6 7 9 9 9 9 13 13 7 7 5 5 4 3 4 5 6 6 4 4 4 3 3 2 2 2 2 2
14 11 10 8 7 6 6 6 4 9 9 7 7 6 5 9 11 16 12 13 19 20 9 9 7 6 7 6 6 4 4 6 5 5 4 3 3 3 4 2 2 2 2
13 12 9 9 7 8 8 9 8 4 8 11 13 16 17 11 12 13 14 20 17 12 11 8 8 8 7 5 5 4 4 3 5 5 5 5 4 4 4 3 2 2 1
12 11 8 8 9 9 9 8 6 6 6 5 5 11 16 14 15 17 17 15 9 5 9 10 8 8 7 6 5 4 4 4 3 4 4 5 4 4 3 3 2 2 2
10 8 10 8 8 9 8 8 7 6 4 3 2 5 10 20 20 19 14 10 10 8 8 7 7 7 6 5 4 5 6 5 5 4 4 4 4 4 4 4 4 3 3
8 12 9 9 8 9 9 9 9 8 6 5 4 6 6 15 13 8 6 8 8 8 7 8 6 6 6 6 5 6 5 5 5 4 4 4 4 4 4 4 3 2 2
6 5 11 9 9 8 7 9 10 8 7 7 6 6 12 11 10 8 7 7 7 7 7 7 7 6 6 6 6 6 6 5 4 5 4 4 4 4 3 3 3 2 2
5 2 2 7 9 10 6 6 10 11 13 14 8 8 12 10 9 8 8 8 7 7 6 7 5 5 5 5 5 5 6 6 5 5 5 4 5 5 4 4 4 4 4
1 6 8 10 11 12 10 8 10 11 12 12 11 10 10 9 9 9 9 8 8 8 6 7 7 6 4 4 4 5 6 4 5 6 6 6 6 6 5 5 5 5 5
11 11 12 11 9 10 10 11 10 12 12 11 10 10 10 9 9 10 9 8 8 8 6 6 7 8 7 5 4 5 5 5 6 7 10 9 8 8 6 7 6 7 6
10 11 11 11 11 10 11 11 11 11 11 10 10 10 10 10 9 9 8 8 8 8 8 6 6 8 9 10 9 9 8 10 11 10 9 11 10 9 8 8 8 8 7
10 11 10 9 10 9 10 10 10 10 11 10 10 9 10 9 9 8 8 8 9 9 9 7 8 11 11 10 11 11 11 12 12 12 10 10 10 9 9 11 12 9 10
Wind_Direction
202 210 205 216 217 223 221 232 231 233 231 227 221 215 217 217 211 209 219 232 236 244 252 242 248 230 226 191 205 204 205 179 195 262 136 301 131 163 144 180 164 149 257
204 203 219 233 238 232 243 242 226 231 240 239 239 229 232 245 236 232 236 236 236 245 243 240 251 231 229 211 208 200 186 169 167 181 154 257 225 171 170 175 66 57 24
167 169 181 215 242 247 240 235 241 235 234 232 227 228 228 238 247 252 258 257 242 250 244 240 243 234 230 217 189 194 192 169 172 146 156 134 244 141 179 35 103 78 49
182 177 184 197 226 250 273 263 242 242 249 248 246 236 239 249 259 266 258 257 243 243 243 238 232 222 217 208 194 188 169 162 157 153 143 192 145 224 172 162 100 106 159
174 170 194 201 227 223 237 276 289 278 264 243 234 235 235 242 253 254 252 250 256 251 242 238 231 223 207 195 172 165 162 172 160 178 173 131 158 183 205 183 141 154 203
239 248 258 237 256 284 294 284 280 274 276 269 257 238 240 248 258 253 249 257 254 243 252 240 226 217 215 180 179 162 171 171 169 170 153 171 204 205 171 165 136 153 218
218 228 230 227 232 242 252 260 269 268 270 268 263 245 249 240 250 256 259 255 252 242 234 226 205 205 192 170 192 176 174 182 183 167 164 190 181 199 151 157 164 151 202
218 220 217 215 225 225 231 242 251 256 259 261 258 258 258 261 247 254 258 261 250 246 227 209 196 182 166 156 154 155 154 174 173 173 182 194 202 173 169 165 165 147 62
224 222 224 224 220 220 229 233 237 247 254 253 247 251 254 263 250 256 259 248 250 245 217 170 177 163 162 151 144 140 135 148 65 97 199 188 176 160 147 122 150 130 194
231 235 229 217 223 224 229 247 246 233 240 240 243 230 246 259 258 256 251 235 248 212 192 172 166 156 162 161 149 149 150 202 151 131 113 78 116 137 153 153 153 150 145
231 233 232 226 222 225 232 233 231 223 234 231 238 246 244 241 262 259 234 228 230 199 173 155 170 167 166 175 157 156 177 150 162 145 143 119 107 132 147 149 172 147 160
231 229 229 230 231 238 233 228 229 219 228 233 221 239 240 254 247 264 241 219 212 190 178 164 166 170 166 170 165 156 143 136 152 143 135 134 144 157 177 184 182 194 194
243 235 233 235 234 232 226 212 214 223 226 224 191 208 256 246 259 248 270 236 210 166 157 136 133 136 136 130 141 147 151 153 154 151 148 165 176 163 143 135 101 177 98
229 224 224 225 220 220 215 205 212 220 222 209 187 214 223 242 247 243 229 167 129 105 101 112 123 117 98 108 105 143 164 164 159 157 155 157 130 122 137 148 138 137 102
217 220 219 217 218 217 215 217 218 216 197 197 192 182 218 251 229 203 191 188 151 136 130 121 110 104 115 113 115 147 140 145 150 145 152 136 121 143 140 148 127 122 140
214 211 214 200 195 198 207 220 245 200 195 215 222 208 243 267 212 198 209 197 140 149 125 132 130 136 136 149 154 141 143 146 149 150 142 142 152 167 141 133 115 128 163
201 202 202 198 194 205 211 218 218 210 228 233 233 233 219 231 198 169 173 148 155 133 129 134 140 147 153 155 147 133 132 144 128 132 151 156 163 145 134 145 128 129 145
192 188 192 202 207 209 211 214 205 209 216 235 238 219 207 182 160 149 159 140 125 96 130 143 149 151 151 148 139 134 131 137 135 147 151 164 159 136 127 133 143 142 118
179 191 202 208 194 198 202 213 214 210 166 139 112 54 168 152 156 158 186 140 137 134 138 139 146 143 137 141 141 145 149 156 155 155 149 136 138 132 133 141 134 98 114
191 214 214 206 206 208 212 210 177 145 139 119 103 91 117 142 148 148 128 130 130 131 136 138 130 126 135 146 147 143 134 145 136 127 124 124 135 135 139 140 152 138 173
212 196 211 199 195 191 147 146 147 128 142 116 111 167 165 132 129 125 124 114 121 122 123 122 121 126 140 143 135 135 136 121 119 123 127 129 122 113 133 115 119 111 134
147 160 314 100 103 116 103 103 124 123 128 128 149 117 104 108 108 104 100 94 84 85 90 104 95 106 120 129 127 128 129 137 136 125 120 112 109 107 107 102 95 91 89
219 104 94 90 91 93 91 104 104 105 104 104 103 99 98 96 95 96 88 83 83 78 75 93 99 88 75 86 112 140 138 143 127 120 116 110 108 106 102 96 97 88 81
92 92 95 101 103 104 104 96 89 83 93 92 93 92 91 90 88 84 84 87 85 76 73 81 88 104 100 81 78 82 101 110 111 120 115 107 99 94 94 90 85 83 86
86 93 92 92 96 97 98 94 91 91 92 94 92 89 91 90 89 87 88 87 86 88 71 73 77 83 89 95 87 82 78 83 96 99 99 103 105 96 87 87 87 77 73
86 89 93 94 95 96 96 98 97 96 96 97 94 93 100 99 92 90 96 97 93 86 84 75 73 78 78 74 82 83 78 79 86 91 100 99 99 94 93 90 83 80 79